Location: Albany
(35.0170°S, 117.8920°E)
Time: 17:24:07
(UTC+08:00)

Transit 2A - Pass Details

Date: 28 January 2021
Orbit: 601 x 958 km, 66.7° (Epoch: 02 March)

Event Time Altitude Azimuth Distance (km) Brightness Sun altitude
Rises 01:04:31 0° 216° (SW) 3,588 10.0 -35.7°
Reaches altitude 10° 01:07:09 10° 222° (SW) 2,669 9.1 -35.6°
Enters shadow 01:09:30 22° 234° (SW) 1,938 8.2 -35.5°
Maximum altitude 01:12:59 41° 289° (WNW) 1,368 - -35.3°
Drops below altitude 10° 01:18:50 10° 357° (N) 2,677 - -35.0°
Sets 01:21:30 0° 4° (N) 3,598 - -34.8°
